Saguache, CO

7:13 AM MDT on August 23, 2017 (GMT -0600)
Saguache

Weather History for K04V - November, 2013

Change the Weather History Date:

Wednesday, November 13, 2013

  Actual Average (KALS) Record (KALS)
Temperature  
Mean Temperature 36 °F -  
Max Temperature 50 °F 48 °F 63 °F (1973)
Min Temperature 21 °F 14 °F -12 °F (1940)
Degree Days  
Heating Degree Days 30    
Moisture  
Dew Point 15 °F    
Average Humidity 46    
Maximum Humidity 63    
Minimum Humidity 32    
Precipitation  
Precipitation 0.00 in - - ()
Sea Level Pressure  
Sea Level Pressure 30.38 in    
Wind  
Wind Speed 7 mph (NNW)    
Max Wind Speed 14 mph    
Max Gust Speed -    
Visibility 10 miles    
Events      
Averages and records for this station are not official NWS values.
T = Trace of Precipitation, MM = Missing Value Source: NWS Daily Summary

Daily Weather History Graph

Daily Weather History Graph

Search for Another Location

Airport or City:

Trip Planner

Search our weather history database for the weather conditions in past years. The results will help you decide how hot, cold, wet, or windy it might be!

Date:

Astronomy

Nov. 13, 2013 Rise Set
Actual Time 6:43 AM MST 4:53 PM MST
Civil Twilight 6:15 AM MST 5:21 PM MST
Nautical Twilight 5:43 AM MST 5:53 PM MST
Astronomical Twilight 5:12 AM MST 6:24 PM MST
Moon 2:39 PM MST (11/13) 2:43 AM MST (11/13)
Length of Visible Light 11h 06m
Length of Day
10h 10m
Waxing Gibbous, 85% of the Moon is Illuminated
Nov 13
Waxing Gibbous
Nov 17
Full
Nov 25
Last Quarter
Dec 2
New
Dec 9
First Quarter

Hourly Weather History & Observations

Time (MST) Temp. Windchill Dew Point Humidity Pressure Visibility Wind Dir Wind Speed Gust Speed Precip Events Conditions
12:12 AM 26.6 °F 18.2 °F 10.4 °F 51% 30.58 in 10.0 mi NNW 8.1 mph - N/A   Clear
12:32 AM 21.2 °F 13.6 °F 6.8 °F 54% 30.57 in 10.0 mi NNW 5.8 mph - N/A   Clear
12:52 AM 21.2 °F 16.4 °F 8.6 °F 58% 30.57 in 10.0 mi North 3.5 mph - N/A   Clear
1:12 AM 21.2 °F 12.6 °F 8.6 °F 58% 30.57 in 10.0 mi NW 6.9 mph - N/A   Clear
1:32 AM 23.0 °F 13.9 °F 10.4 °F 59% 30.57 in 10.0 mi NNW 8.1 mph - N/A   Clear
1:52 AM 23.0 °F 13.1 °F 10.4 °F 59% 30.57 in 10.0 mi NNW 9.2 mph - N/A   Clear
2:12 AM 23.0 °F 15.8 °F 10.4 °F 59% 30.56 in 10.0 mi NW 5.8 mph - N/A   Clear
2:32 AM 21.2 °F 10.1 °F 10.4 °F 63% 30.56 in 10.0 mi NNW 10.4 mph - N/A   Clear
2:51 AM 23.0 °F 13.1 °F 10.4 °F 59% 30.55 in 10.0 mi NNW 9.2 mph - N/A   Clear
3:12 AM 24.8 °F 14.6 °F 10.4 °F 54% 30.54 in 10.0 mi NNW 10.4 mph - N/A   Clear
3:32 AM 24.8 °F 12.9 °F 10.4 °F 54% 30.54 in 10.0 mi NNW 13.8 mph - N/A   Clear
3:52 AM 23.0 °F 13.9 °F 10.4 °F 59% 30.53 in 10.0 mi NNW 8.1 mph - N/A   Clear
4:12 AM 24.8 °F 13.4 °F 10.4 °F 54% 30.53 in 10.0 mi NNW 12.7 mph - N/A   Clear
4:32 AM 23.0 °F 11.1 °F 10.4 °F 59% 30.52 in 10.0 mi NNW 12.7 mph - N/A   Clear
4:51 AM 23.0 °F 10.6 °F 10.4 °F 59% 30.52 in 10.0 mi NNW 13.8 mph - N/A   Clear
5:11 AM 23.0 °F 11.1 °F 10.4 °F 59% 30.52 in 10.0 mi NNW 12.7 mph - N/A   Clear
5:31 AM 24.8 °F 14.6 °F 10.4 °F 54% 30.52 in 10.0 mi NNW 10.4 mph - N/A   Clear
5:52 AM 26.6 °F 15.7 °F 12.2 °F 55% 30.52 in 10.0 mi NNW 12.7 mph - N/A   Clear
6:12 AM 23.0 °F 13.1 °F 10.4 °F 59% 30.51 in 10.0 mi NNW 9.2 mph - N/A   Clear
6:32 AM 21.2 °F 10.1 °F 10.4 °F 63% 30.50 in 10.0 mi NNW 10.4 mph - N/A   Clear
6:52 AM 21.2 °F 8.3 °F 10.4 °F 63% 30.51 in 10.0 mi NNW 13.8 mph - N/A   Clear
7:12 AM 23.0 °F 12.4 °F 10.4 °F 59% 30.51 in 10.0 mi NNW 10.4 mph - N/A   Clear
7:32 AM 26.6 °F 16.8 °F 10.4 °F 51% 30.51 in 10.0 mi NNW 10.4 mph - N/A   Clear
7:52 AM 28.4 °F 19.7 °F 12.2 °F 51% 30.52 in 10.0 mi NNW 9.2 mph - N/A   Clear
8:12 AM 32.0 °F 23.6 °F 12.2 °F 44% 30.51 in 10.0 mi NW 10.4 mph - N/A   Clear
8:32 AM 33.8 °F 25.3 °F 12.2 °F 41% 30.50 in 10.0 mi NW 11.5 mph - N/A   Clear
8:52 AM 33.8 °F 28.6 °F 12.2 °F 41% 30.50 in 10.0 mi WNW 5.8 mph - N/A   Clear
9:12 AM 35.6 °F - 14.0 °F 41% 30.50 in 10.0 mi Calm Calm - N/A   Clear
9:32 AM 37.4 °F 34.9 °F 17.6 °F 45% 30.48 in 10.0 mi SSE 3.5 mph - N/A   Clear
9:52 AM 39.2 °F 37.0 °F 19.4 °F 45% 30.48 in 10.0 mi SE 3.5 mph - N/A   Clear
10:12 AM 41.0 °F 38.0 °F 21.2 °F 45% 30.47 in 10.0 mi SSE 4.6 mph - N/A   Clear
10:31 AM 41.0 °F 37.1 °F 23.0 °F 49% 30.46 in 10.0 mi SE 5.8 mph - N/A   Clear
10:52 AM 42.8 °F 40.1 °F 21.2 °F 42% 30.44 in 10.0 mi SSE 4.6 mph - N/A   Clear
11:11 AM 42.8 °F 41.1 °F 21.2 °F 42% 30.43 in 10.0 mi South 3.5 mph - N/A   Clear
11:32 AM 44.6 °F 43.1 °F 21.2 °F 39% 30.41 in 10.0 mi South 3.5 mph - N/A   Clear
11:52 AM 44.6 °F 43.1 °F 21.2 °F 39% 30.40 in 10.0 mi ESE 3.5 mph - N/A   Clear
12:12 PM 46.4 °F 44.3 °F 21.2 °F 37% 30.37 in 10.0 mi SSE 4.6 mph - N/A   Clear
12:31 PM 46.4 °F 44.3 °F 21.2 °F 37% 30.35 in 10.0 mi SSE 4.6 mph - N/A   Clear
12:52 PM 48.2 °F - 21.2 °F 34% 30.34 in 10.0 mi South 5.8 mph - N/A   Clear
1:12 PM 48.2 °F - 21.2 °F 34% 30.33 in 10.0 mi SE 4.6 mph - N/A   Clear
1:32 PM 48.2 °F - 21.2 °F 34% 30.32 in 10.0 mi SSE 3.5 mph - N/A   Clear
1:52 PM 50.0 °F - 21.2 °F 32% 30.31 in 10.0 mi ESE 3.5 mph - N/A   Clear
2:12 PM 48.2 °F - 21.2 °F 34% 30.30 in 10.0 mi South 5.8 mph - N/A   Clear
2:32 PM 48.2 °F - 21.2 °F 34% 30.29 in 10.0 mi South 6.9 mph - N/A   Clear
2:51 PM 48.2 °F - 21.2 °F 34% 30.28 in 10.0 mi South 5.8 mph - N/A   Clear
3:11 PM 48.2 °F - 19.4 °F 32% 30.28 in 10.0 mi SSE 5.8 mph - N/A   Clear
3:32 PM 48.2 °F - 21.2 °F 34% 30.28 in 10.0 mi ESE 4.6 mph - N/A   Clear
3:51 PM 48.2 °F - 21.2 °F 34% 30.27 in 10.0 mi ESE 4.6 mph - N/A   Clear
4:12 PM 46.4 °F - 21.2 °F 37% 30.27 in 10.0 mi Calm Calm - N/A   Clear
4:32 PM 44.6 °F 43.1 °F 19.4 °F 37% 30.27 in 10.0 mi SSE 3.5 mph - N/A   Clear
4:52 PM 42.8 °F - 19.4 °F 39% 30.26 in 10.0 mi Calm Calm - N/A   Clear
5:12 PM 41.0 °F - 19.4 °F 42% 30.26 in 10.0 mi Calm Calm - N/A   Clear
5:32 PM 39.2 °F 35.9 °F 17.6 °F 42% 30.26 in 10.0 mi NNE 4.6 mph - N/A   Clear
5:52 PM 39.2 °F 35.9 °F 17.6 °F 42% 30.26 in 10.0 mi NE 4.6 mph - N/A   Clear
6:12 PM 37.4 °F 34.9 °F 17.6 °F 45% 30.25 in 10.0 mi NE 3.5 mph - N/A   Clear
6:32 PM 37.4 °F - 17.6 °F 45% 30.24 in 10.0 mi Calm Calm - N/A   Clear
6:52 PM 35.6 °F - 17.6 °F 48% 30.24 in 10.0 mi Calm Calm - N/A   Clear
7:12 PM 37.4 °F - 17.6 °F 45% 30.23 in 10.0 mi Calm Calm - N/A   Clear
7:32 PM 35.6 °F 31.7 °F 17.6 °F 48% 30.22 in 10.0 mi NNE 4.6 mph - N/A   Scattered Clouds
7:52 PM 35.6 °F 31.7 °F 14.0 °F 41% 30.22 in 10.0 mi NW 4.6 mph - N/A   Scattered Clouds
8:12 PM 35.6 °F 29.9 °F 14.0 °F 41% 30.22 in 10.0 mi North 6.9 mph - N/A   Clear
8:32 PM 37.4 °F 31.4 °F 15.8 °F 41% 30.22 in 10.0 mi North 8.1 mph - N/A   Clear
8:51 PM 37.4 °F 30.8 °F 14.0 °F 38% 30.21 in 10.0 mi NNW 9.2 mph - N/A   Clear
9:12 PM 37.4 °F 30.8 °F 14.0 °F 38% 30.21 in 10.0 mi NNW 9.2 mph - N/A   Clear
9:31 PM 35.6 °F 28.6 °F 14.0 °F 41% 30.19 in 10.0 mi NNW 9.2 mph - N/A   Clear
9:52 PM 37.4 °F 30.8 °F 14.0 °F 38% 30.19 in 10.0 mi NNW 9.2 mph - N/A   Clear
10:12 PM 37.4 °F 31.4 °F 14.0 °F 38% 30.19 in 10.0 mi NNW 8.1 mph - N/A   Clear
10:31 PM 35.6 °F 29.2 °F 14.0 °F 41% 30.19 in 10.0 mi North 8.1 mph - N/A   Clear
10:52 PM 35.6 °F 28.0 °F 14.0 °F 41% 30.19 in 10.0 mi NNW 10.4 mph - N/A   Clear
11:12 PM 39.2 °F 31.6 °F 14.0 °F 36% 30.19 in 10.0 mi NNW 12.7 mph - N/A   Clear
11:32 PM 37.4 °F 29.8 °F 15.8 °F 41% 30.18 in 10.0 mi NW 11.5 mph - N/A   Clear
11:52 PM 37.4 °F 31.4 °F 15.8 °F 41% 30.17 in 10.0 mi NNW 8.1 mph - N/A   Clear